カタログに戻る

SL-19 DEB

運用中UNKNOWN
NORAD 24679·DEBRIS·🇷🇺 Russia

打ち上げ Dec 26, 1994 から Baikonur Cosmodrome

Loading…

次のパス (今後24時間)

TLE

最新Source: Space-Track

元期: Sep 13, 2026, 19:35 UTC

1 24679U 94085Y   26256.81654612 -.00000022  00000-0  55207-3 0  9995
2 24679  64.9826  95.3558 0175301  84.0371 291.8076 11.32324068476235

AllMySatでSL-19 DEBをリアルタイム追跡

Download on the App Store